Regional Weather Roundup
Issued by NWS Cleveland, OH

Home | Current Version | Previous Version | Graphics & Text | Print | Product List | Glossary On
Versions: 1 2 3 4 5 6 7 8 9 10 11 12 13 14 15 16 17 18 19 20 21 22 23 24 25 26 27 28 29 30 31 32 33 34 35 36 37 38 39 40 41 42 43 44 45 46 47 48 49 50
000
ASUS41 KCLE 310200
RWRCLE
OHIO REGIONAL WEATHER ROUNDUP
NATIONAL WEATHER SERVICE WILMINGTON, OH
1000 PM EDT THU JUL 30 2015

NOTE: "FAIR" INDICATES FEW OR NO CLOUDS BELOW 12,000 FEET WITH NO
SIGNIFICANT WEATHER AND/OR OBSTRUCTIONS TO VISIBILITY.

OHZ001>008-015>018-024>027-034-035-043-044-310300-
   NORTHWEST OHIO

CITY           SKY/WX    TMP DP  RH WIND       PRES   REMARKS
DEFIANCE       LGT RAIN  72  57  59 CALM      30.00R
FINDLAY        CLEAR     71  58  63 W5        30.00R
TOLEDO EXPRESS CLEAR     73  58  59 SW5       29.98R
TOLEDO EXEC    CLEAR     74  58  57 W6        29.99R
LIMA           CLEAR     70  57  63 W5        30.03R
$$

OHZ009>014-019>023-028>033-038-089-310300-
   NORTHEAST OHIO

CITY           SKY/WX    TMP DP  RH WIND       PRES   REMARKS
CLE-HOPKINS    CLEAR     72  58  61 SW6       29.99R
CLE-LAKEFRONT  CLEAR     78  65  63 W14       29.94R
CUY CO. ARPT   CLEAR     79  63  57 W13       29.96S
LORAIN-ELYRIA  CLEAR     69  58  67 W6        29.98R
ASHTABULA      PTCLDY    71  58  63 SW5       29.96R
AKRON-CANTON   CLEAR     74  57  55 W5        29.99R
WOOSTER        NOT AVBL
MANSFIELD      CLEAR     71  58  63 W6        30.02R
YOUNGSTOWN     PTCLDY    70  59  68 W3        29.98R
$$

OHZ042-051>053-060>062-070>072-077>081-310300-
  SOUTHWEST OHIO

CITY           SKY/WX    TMP DP  RH WIND       PRES   REMARKS
CINC-COVINGTON PTCLDY    76  60  56 W3        30.05R
CINC-LUNKEN    CLEAR     69  63  81 CALM      30.04R
HAMILTON       CLEAR     67  62  84 CALM      30.04R
DAYTON         NOT AVBL
WRIGHT-PAT AFB NOT AVBL
DAYTON GENERAL CLEAR     74  59  59 CALM      30.04R
WILMINGTON     CLEAR     74  57  55 NW6       30.04R
$$

OHZ036-037-039>041-045>050-054>059-063>069-073>076-082>088-310300-
  CENTRAL AND SOUTHEAST OHIO

CITY           SKY/WX    TMP DP  RH WIND       PRES   REMARKS
COLUMBUS       PTCLDY    74  59  59 W7        30.01R
OSU AIRPORT    CLEAR     73  60  63 W5        30.02R
BOLTON FIELD   NOT AVBL
RICKENBACK AFB NOT AVBL
NEWARK         CLEAR     71  59  65 W3        30.01R
MARION         CLEAR     73  57  57 W3        30.02R
LANCASTER      CLEAR     69  59  70 CALM      30.02R
ZANESVILLE     CLEAR     72  58  61 SW3       30.01R
NEW PHILLY     CLEAR     68  61  78 CALM      30.00R
$$



USA.gov is the U.S. government's official web portal to all federal, state and local government web resources and services.